Location: Pic du Midi - T1M
(42.9366°N, 0.1426°E)
Time: 11:20:54
(UTC+01:00)

X-37B - Pass Details

Date: 24 June 2021
Orbit: 383 x 392 km, 45.0° (Epoch: 01 July)

Event Time Altitude Azimuth Distance (km) Brightness Sun altitude
Rises 23:42:32 0° 272° (W) 2,246 4.7 -21.2°
Reaches altitude 10° 23:44:37 10° 276° (W) 1,394 3.7 -21.3°
Enters shadow 23:47:21 52° 324° (NW) 482 1.3 -21.5°
